Regional Weather Roundup
Issued by NWS

Home | Current Version | Previous Version | Graphics & Text | Print | Product List | Glossary On
Versions: 1 2 3 4 5 6 7 8 9 10 11 12 13 14 15 16 17 18 19 20 21 22 23 24 25 26 27 28
000
ASUS45 KTFX 211110
RWRMT
MONTANA REGIONAL WEATHER ROUNDUP
NATIONAL WEATHER SERVICE GREAT FALLS MT
500 AM MDT MON AUG 21 2017

NOTE: "FAIR" INDICATES FEW OR NO CLOUDS BELOW 12000 FEET WITH NO
SIGNIFICANT WEATHER AND/OR OBSTRUCTIONS TO VISIBILITY.

MTZ001>007-043-211200-
WEST OF THE DIVIDE

CITY           SKY/WX    TMP DP  RH WIND       PRES   REMARKS
KALISPELL      CLEAR     43  39  86 W3        30.13R
MISSOULA       CLEAR     51  38  60 CALM      30.15S
BUTTE          CLEAR     47  31  53 E3        30.23R
MULLAN PASS    CLEAR     53  32  44 NW3       30.25S
ANACONDA         N/A     48  32  53 SW5       30.21R
DEER LODGE       N/A     46  34  61 W3        30.22R
EUREKA           N/A     45  36  70 MISG      30.15R
HAMILTON         N/A     50  37  62 S3        30.17R
LIBBY            N/A     46  39  76 CALM      30.14R
PLAINS           N/A     46  36  68 CALM      30.14R
RONAN            N/A     45  40  82 CALM      30.16S
$$

MTZ008-052>055-211200-
SOUTHWEST MONTANA

CITY           SKY/WX    TMP DP  RH WIND       PRES   REMARKS
BOZEMAN        CLEAR     45  36  70 S6        30.17R
DILLON         CLOUDY    50  28  42 S6        30.18R
W YELLOWSTONE  CLOUDY    39  36  87 CALM      30.25S
ENNIS          CLOUDY    46  30  53 NE6       30.24R
THREE FORKS      N/A     43  36  76 CALM      30.13S
TWIN BRIDGES     N/A     51  24  35 CALM      30.14S
$$

MTZ009-010-012-014-046-048-049-054-211200-
EAST SLOPES AND CENTRAL MONTANA

CITY           SKY/WX    TMP DP  RH WIND       PRES   REMARKS
CUT BANK       CLEAR     50  35  56 NW12      30.14R
GREAT FALLS    CLEAR     48  29  47 SW8       30.13R
MALMSTROM AFB  CLEAR     52  33  49 SW9       30.12R
HELENA         CLEAR     56  35  45 SW5       30.16R
AUGUSTA          N/A     49  32  53 N5        30.16R
BOWMANS CRNR     N/A     53  33  47 W7        30.14S
CHOTEAU          N/A     48  36  61 NE3       30.16R
FAIRFIELD        N/A     51  34  53 NW5       30.13R
POWER            N/A     49  33  54 W10       30.12R
RAYNESFORD       N/A     47  31  53 CALM      30.14S
ULM              N/A     49  30  47 SE6       30.13S
$$

MTZ011-013-016-021-045-047-050-051-211200-
NORTH CENTRAL MONTANA

CITY           SKY/WX    TMP DP  RH WIND       PRES   REMARKS
HAVRE          CLOUDY    57  35  43 CALM      30.08R
LEWISTOWN      CLEAR     49  33  54 SE6       30.14R
N BAR RANCH      N/A     50  28  43 W8        30.17S
CHINOOK          N/A     59  36  41 NW5       30.07R
DENTON           N/A     50  31  46 SW10      30.08R
GEYSER           N/A     54  32  43 SW14      30.13R
GRASS RANGE      N/A     51  31  46 W6        30.09S
JUDITH GAP       N/A     52  28  39 N5        30.15R
WINIFRED         N/A     57  28  32 SW7       30.10R
$$

MTZ017>020-022>027-061-062-211200-
NORTHEAST MONTANA

CITY           SKY/WX    TMP DP  RH WIND       PRES   REMARKS
GLASGOW        CLEAR     57  34  41 N8        30.01R
JORDAN           N/A     51  30  44 W3        30.04R
SIDNEY         CLOUDY    54  48  80 SW7       29.97R
WOLF POINT     CLEAR     63  35  35 NW12      29.99R
MALTA          MOCLDY    59  37  44 VRB3      30.05R
PLENTYWOOD       N/A     55  39  54 NW12      29.96R
POPLAR           N/A     63  37  39 NW9       29.97R
SCOBEY           N/A     53  35  50 W2        30.01R
$$

MTZ028>42-056>058-211200-
SOUTHCENTRAL AND SOUTHEAST MONTANA

CITY           SKY/WX    TMP DP  RH WIND       PRES   REMARKS
BAKER          PTCLDY    56  47  71 CALM      30.01S
BILLINGS       PTCLDY    59  36  42 SW6       30.11R
LIVINGSTON     CLEAR     48  31  51 W6        30.16R
MILES CITY     MOCLDY    58  40  51 NW8       30.03R
BIG TIMBER     CLOUDY    52  30  43 W9        30.17S
EKALAKA          N/A     59  46  61 CALM      30.01R
HARLOWTON        N/A     48  28  46 MISG      30.15R
LAUREL           N/A     58  32  37 CALM      30.09F
$$

REGIONAL REPORTS...DAKOTAS

CITY           SKY/WX    TMP DP  RH WIND       PRES   REMARKS
WILLISTON      CLOUDY    58  48  69 S5        29.94F
MINOT          PTCLDY    57  50  77 NE5       29.96F
DICKINSON      CLEAR     50  46  86 S8        29.98R
BEACH          MOCLDY    55  48  76 SW5       30.03R
CROSBY           N/A     59  45  58 SW9G18    29.93R
TIOGA            N/A     54  48  82 CALM      29.96S
WATFORD CITY     N/A     52  48  87 CALM      29.95S
BISMARCK       MOCLDY    58  53  84 SE9       29.96F
GRAND FORKS    CLOUDY    55  53  93 CALM      30.00R
FARGO          CLOUDY    60  57  89 CALM      30.02R
BUFFALO SD       N/A     56  50  80 SW6       29.95R
RAPID CITY     CLOUDY    61  52  72 NE8       29.99R
$$

REGIONAL REPORTS...WYOMING/IDAHO/WASHINGTON

CITY           SKY/WX    TMP DP  RH WIND       PRES   REMARKS
GILLETTE       CLEAR     55  40  56 W3        30.07S
SHERIDAN       CLEAR     53  41  63 CALM      30.10R
BUFFALO WY     CLEAR     64  34  32 NW12      30.14R
CODY           PTCLDY    56  35  45 S3        30.18R
YELLOWSTONE LA   N/A     39  36  89 CALM      30.34R
IDAHO FALLS    CLOUDY    53  39  59 SW13      30.13R
SALMON         CLEAR     48  38  68 N3        30.15R
BOISE          PTCLDY    60  41  49 CALM      30.04S
SPOKANE        MOCLDY    59  39  47 CALM      30.11R
$$

REGIONAL REPORTS...ALBERTA

CITY           SKY/WX    TMP DP  RH WIND       PRES   REMARKS
EDMONTON       CLEAR     46  45  93 MISG      30.08S
CALGARY        CLEAR     43  37  81 NW5       30.17R
LETHBRIDGE     CLOUDY    54  41  62 N5        30.15R
MEDICINE HAT   MOCLDY    59  41  51 VRB2      30.11R
$$

REGIONAL REPORTS...SASKATCHEWAN

CITY           SKY/WX    TMP DP  RH WIND       PRES   REMARKS
SWIFT CURRENT  CLEAR     48  39  71 NW7       30.08R
REGINA         PTCLDY    48  41  76 NW9       29.99R
SASKATOON      PTCLDY    39  37  93 W7        30.02R
$$




USA.gov is the U.S. government's official web portal to all federal, state and local government web resources and services.